Nantucket, MA

2:45 AM EST on February 28, 2017 (GMT -0500)
Nantucket Memorial

Weather History for KACK - December, 2012

Change the Weather History Date:

Thursday, December 27, 2012

  Actual Average Record
Temperature  
Mean Temperature 42 °F -  
Max Temperature 52 °F 39 °F 57 °F (2015)
Min Temperature 33 °F 26 °F 3 °F (1950)
Degree Days  
Heating Degree Days 22    
Moisture  
Dew Point 44 °F    
Average Humidity 95    
Maximum Humidity 100    
Minimum Humidity 85    
Precipitation  
Precipitation 0.98 in - - ()
Sea Level Pressure  
Sea Level Pressure 29.38 in    
Wind  
Wind Speed 19 mph (SSE)    
Max Wind Speed 39 mph    
Max Gust Speed 59 mph    
Visibility 4 miles    
Events Fog , Rain , Snow    
Averages and records for this station are not official NWS values.
T = Trace of Precipitation, MM = Missing Value Source: NWS Daily Summary

Daily Weather History Graph

Daily Weather History Graph

Search for Another Location

Airport or City:

Trip Planner

Search our weather history database for the weather conditions in past years. The results will help you decide how hot, cold, wet, or windy it might be!

Date:

Astronomy

Dec. 27, 2012 Rise Set
Actual Time 7:05 AM EST 4:18 PM EST
Civil Twilight 6:33 AM EST 4:49 PM EST
Nautical Twilight 5:59 AM EST 5:24 PM EST
Astronomical Twilight 5:25 AM EST 5:57 PM EST
Moon 3:59 PM EST (12/27) 6:13 AM EST (12/27)
Length of Visible Light 10h 15m
Length of Day
9h 13m
Full, 100% of the Moon is Illuminated
Dec 27
Full
Dec 28
Full
Jan 4
Last Quarter
Jan 11
New
Jan 18
First Quarter

Hourly Weather History & Observations

Time (EST) Temp. Windchill Dew Point Humidity Pressure Visibility Wind Dir Wind Speed Gust Speed Precip Events Conditions
12:32 AM 42.8 °F 34.0 °F 39.2 °F 87% 29.80 in 5.0 mi East 20.7 mph 33.4 mph 0.08 in Rain Light Rain
12:36 AM 42.8 °F 33.5 °F 39.2 °F 87% 29.79 in 5.0 mi East 23.0 mph 33.4 mph 0.08 in Rain Light Rain
12:45 AM 42.8 °F 33.8 °F 41.0 °F 93% 29.78 in 5.0 mi East 21.9 mph 32.2 mph 0.10 in Rain Rain
12:53 AM 43.0 °F 33.8 °F 41.0 °F 93% 29.76 in 4.0 mi East 23.0 mph 36.8 mph 0.13 in Rain Rain
1:44 AM 44.6 °F 35.7 °F 42.8 °F 93% 29.70 in 4.0 mi East 24.2 mph 41.4 mph 0.15 in Rain Rain
1:53 AM 44.1 °F 34.8 °F 43.0 °F 96% 29.70 in 4.0 mi East 25.3 mph 39.1 mph 0.18 in Rain Rain
2:05 AM 44.6 °F 35.3 °F 42.8 °F 93% 29.68 in 6.0 mi East 26.5 mph 38.0 mph 0.02 in Rain Light Rain
2:53 AM 46.0 °F 37.6 °F 44.1 °F 93% 29.62 in 2.5 mi East 24.2 mph 39.1 mph 0.19 in Rain Heavy Rain
3:01 AM 46.4 °F 37.9 °F 44.6 °F 93% 29.60 in 3.0 mi East 25.3 mph 43.7 mph 0.03 in Rain Rain
3:53 AM 46.9 °F - 45.0 °F 93% 29.48 in 7.0 mi East 27.6 mph 49.5 mph 0.08 in   Overcast
4:53 AM 48.9 °F - 46.9 °F 93% 29.31 in 6.0 mi East 39.1 mph 58.7 mph 0.03 in   Mostly Cloudy
5:29 AM 48.2 °F - 46.4 °F 93% 29.31 in 7.0 mi East 36.8 mph 55.2 mph N/A   Mostly Cloudy
5:53 AM 48.9 °F - 46.9 °F 93% 29.31 in 8.0 mi East 33.4 mph 51.8 mph N/A   Overcast
6:53 AM 50.0 °F - 48.0 °F 93% 29.32 in 7.0 mi East 26.5 mph 39.1 mph N/A   Overcast
7:53 AM 51.1 °F - 48.9 °F 92% 29.27 in 6.0 mi East 16.1 mph 28.8 mph N/A   Overcast
8:53 AM 52.0 °F - 51.1 °F 97% 29.27 in 4.0 mi SSE 17.3 mph - 0.21 in Rain Light Rain
9:53 AM 52.0 °F - 51.1 °F 97% 29.28 in 3.0 mi South 19.6 mph 25.3 mph 0.01 in Rain Light Rain
10:53 AM 50.0 °F - 48.9 °F 96% 29.28 in 3.0 mi SW 11.5 mph - 0.03 in Rain Rain
11:53 AM 52.0 °F - 52.0 °F 100% 29.25 in 3.0 mi South 6.9 mph - 0.02 in   Overcast
12:53 PM 50.0 °F - 48.9 °F 96% 29.22 in 4.0 mi South 6.9 mph - N/A   Overcast
1:28 PM 48.2 °F - 48.2 °F 100% 29.21 in 3.0 mi SE 6.9 mph - N/A   Overcast
1:53 PM 50.0 °F - 48.9 °F 96% 29.22 in 2.0 mi SE 6.9 mph - 0.00 in   Overcast
2:19 PM 48.2 °F - 48.2 °F 100% 29.21 in 0.8 mi SE 6.9 mph - 0.01 in Rain Light Rain
2:29 PM 48.2 °F - 48.2 °F 100% 29.21 in 0.8 mi SE 4.6 mph - 0.03 in Rain Light Rain
2:50 PM 50.0 °F - 50.0 °F 100% 29.21 in 1.0 mi South 5.8 mph - 0.07 in Rain Light Rain
2:53 PM 50.0 °F - 50.0 °F 100% 29.21 in 1.0 mi South 6.9 mph - 0.07 in Rain Light Rain
3:21 PM 48.2 °F - 46.4 °F 93% 29.21 in 0.8 mi Calm Calm - 0.00 in   Overcast
3:34 PM 48.2 °F - 48.2 °F 100% 29.21 in 1.0 mi NW 3.5 mph - 0.00 in   Overcast
3:53 PM 46.9 °F - 46.9 °F 100% 29.21 in 0.8 mi Calm Calm - 0.00 in   Overcast
3:59 PM 46.4 °F 45.2 °F 46.4 °F 100% 29.21 in 0.2 mi South 3.5 mph - N/A Fog Fog
4:06 PM 46.4 °F 45.2 °F 46.4 °F 100% 29.22 in 0.2 mi South 3.5 mph - N/A Fog Fog
4:53 PM 46.9 °F - 46.0 °F 97% 29.24 in 0.5 mi West 6.9 mph - N/A Fog Fog
5:05 PM 46.4 °F 43.5 °F 46.4 °F 100% 29.24 in 1.0 mi West 5.8 mph - N/A   Overcast
5:12 PM 48.2 °F - 46.4 °F 93% 29.24 in 2.0 mi West 9.2 mph - N/A   Overcast
5:27 PM 46.4 °F 40.4 °F 46.4 °F 100% 29.25 in 4.0 mi West 13.8 mph - N/A   Overcast
5:35 PM 44.6 °F 37.8 °F 44.6 °F 100% 29.26 in 2.5 mi WNW 15.0 mph - N/A   Overcast
5:48 PM 42.8 °F 34.8 °F 42.8 °F 100% 29.27 in 5.0 mi WNW 17.3 mph 26.5 mph N/A   Overcast
5:53 PM 43.0 °F 35.4 °F 42.1 °F 97% 29.28 in 8.0 mi WNW 16.1 mph 26.5 mph N/A   Overcast
6:05 PM 42.8 °F 34.3 °F 41.0 °F 93% 29.28 in 10.0 mi WNW 19.6 mph 25.3 mph N/A   Overcast
6:53 PM 41.0 °F 32.2 °F 39.9 °F 96% 29.32 in 6.0 mi WNW 18.4 mph 26.5 mph 0.00 in   Overcast
7:42 PM 39.2 °F 29.3 °F 37.4 °F 93% 29.36 in 2.5 mi WNW 20.7 mph 29.9 mph 0.01 in Rain Light Rain
7:53 PM 39.0 °F 29.3 °F 37.9 °F 96% 29.38 in 2.5 mi WNW 19.6 mph 28.8 mph 0.01 in Rain Light Rain
8:25 PM 37.4 °F 26.9 °F 35.6 °F 93% 29.40 in 3.0 mi WNW 20.7 mph 31.1 mph 0.02 in Rain Light Rain
8:53 PM 35.1 °F 23.5 °F 34.0 °F 96% 29.42 in 3.0 mi WNW 21.9 mph 36.8 mph 0.02 in   Overcast
9:53 PM 34.0 °F 22.1 °F 32.0 °F 92% 29.48 in 10.0 mi NW 21.9 mph 39.1 mph 0.00 in   Overcast
10:32 PM 33.8 °F 21.0 °F 30.2 °F 87% 29.50 in 9.0 mi WNW 25.3 mph 36.8 mph 0.00 in Snow Light Snow
10:53 PM 33.1 °F 21.2 °F 30.0 °F 89% 29.52 in 10.0 mi NW 20.7 mph 36.8 mph 0.00 in   Overcast
11:53 PM 33.1 °F 21.9 °F 28.9 °F 85% 29.56 in 10.0 mi NW 18.4 mph 31.1 mph N/A   Overcast